User: anonymous   Login
Location: Unspecified
(0.0000°N, 0.0000°E)
Time: 00:43:03
(UTC+00:00)
Language:

USA 93 - Orbit

View from above orbital plane
View from above orbital plane
View from above satellite
View from above satellite

Ground track
Ground track

The orbit data is extracted from the following two-line orbital elements,

1 22719U 93046A   23080.12063215 -.00000246  00000-0  00000+0 0  9998
2 22719  12.8789  22.3319 0005364  53.1334 133.3970  0.99052844 13444
Epoch (UTC): 21 March 2023 02:53:42
Eccentricity: 0.0005364
inclination: 12.8789°
perigee height: 36108 km
apogee height: 36154 km
right ascension of ascending node: 22.3319°
argument of perigee: 53.1334°
revolutions per day: 0.99052844
mean anomaly at epoch: 133.3970°
orbit number at epoch: 1344

The dashed part of the orbit path shows where the satellite is in the earth's shadow,  

DLR